Overview Statistics Trail Chart Weather Telemetry Raw packets
 

This is the latest recevied weather packets stored in our database for station/object K0NV. If no packets are shown the sender has not sent any weather packets the latest 10 day(s).

<< 106 107 108 109 110 111 112 >>
Time Temp. Humidity Pressure Rain* Wind** Luminosity Snow
1787762519 31.67° C 68% 1018.6 hPa 0 mm - 709 W/m² -
1787762216 31.11° C 69% 1018.6 hPa 0 mm - 712 W/m² -
1787761911 31.67° C 68% 1018.7 hPa 0 mm - 714 W/m² -
1787761606 31.11° C 68% 1018.7 hPa 0 mm - 734 W/m² -
1787761301 30.56° C 70% 1018.5 hPa 0 mm - 747 W/m² -
1787761001 31.11° C 69% 1018.8 hPa 0 mm - 729 W/m² -
1787760698 30° C 73% 1018.6 hPa 0 mm - 708 W/m² -
1787760393 30.56° C 71% 1018.6 hPa 0 mm - 699 W/m² -
1787760087 30.56° C 71% 1018.7 hPa 0 mm - 760 W/m² -
1787759785 31.11° C 71% 1018.5 hPa 0 mm - 759 W/m² -
1787759481 30.56° C 70% 1018.6 hPa 0 mm - 714 W/m² -
1787759176 30.56° C 72% 1018.4 hPa 0 mm - 643 W/m² -
1787758870 31.67° C 72% 1018.8 hPa 0 mm - 590 W/m² -
1787758566 31.11° C 70% 1018.6 hPa 0 mm - 685 W/m² -
1787758264 30° C 75% 1018.6 hPa 0 mm - 669 W/m² -
1787757959 29.44° C 77% 1018.6 hPa 0 mm - 649 W/m² -
1787757656 29.44° C 75% 1018.5 hPa 0 mm - 606 W/m² -
1787757355 30° C 74% 1018.4 hPa 0 mm - 574 W/m² -
1787757054 30° C 74% 1018.6 hPa 0 mm - 617 W/m² -
1787756749 28.89° C 77% 1018.4 hPa 0 mm - 553 W/m² -
1787756444 28.89° C 78% 1018.2 hPa 0 mm - 525 W/m² -
1787756143 30° C 77% 1018.3 hPa 0 mm - 487 W/m² -
1787755839 30° C 76% 1018.2 hPa 0 mm - 502 W/m² -
1787755537 28.89° C 78% 1018.3 hPa 0 mm - 488 W/m² -
1787755233 29.44° C 78% 1018.1 hPa 0 mm - 450 W/m² -

* Rain latest hour (hover to see other rain measurements)
** Current wind speed in m/s (hover to see current wind gust speed)